Temperature
15 16 16 17 20 21 22 23 22 22 22 21 21 22 24 24 24 23 18 18 17 17 17 17 17 17 17 17 17 17 17 17 17 17 16 16 16 16 16 16 16 15 15 15 15 15 15 15 15
15 15 16 18 21 21 22 22 22 22 21 20 20 21 22 22 19 18 17 17 17 17 17 17 17 17 17 17 17 17 17 17 17 17 16 16 16 16 16 16 16 15 15 15 15 15 15 15 15
14 15 17 20 21 22 23 22 22 21 19 19 20 20 21 20 17 17 17 17 16 16 16 17 17 17 17 17 17 17 17 17 17 16 16 16 16 16 15 15 15 15 15 15 15 15 15 15 15
14 15 17 20 20 21 22 22 21 20 19 19 20 20 19 17 16 16 17 16 16 16 16 16 17 17 17 17 16 16 16 16 16 16 16 16 16 16 15 15 15 15 15 15 15 15 15 14 14
14 16 18 19 20 21 20 20 19 21 21 19 20 21 19 16 16 16 17 16 16 16 15 16 16 16 16 16 16 16 16 16 16 16 16 16 16 16 15 15 15 15 15 15 15 15 14 14 14
14 17 19 19 20 20 19 18 19 20 20 19 19 20 18 16 16 16 16 16 16 15 15 16 16 16 16 16 16 16 16 16 16 16 16 16 15 15 15 15 15 15 15 15 15 14 14 14 14
15 17 18 19 19 19 19 17 19 19 20 19 18 20 18 15 16 16 15 15 15 15 15 15 15 16 16 16 16 16 16 16 16 16 16 16 15 15 15 15 15 15 15 15 14 14 14 14 14
13 16 17 18 18 19 18 17 17 18 18 17 17 19 18 15 15 15 15 15 15 15 15 15 15 15 15 15 16 16 16 15 16 16 16 15 15 15 15 15 14 14 14 14 14 14 14 14 14
12 15 16 17 18 18 17 17 16 15 16 16 16 17 16 15 14 14 14 14 14 14 15 15 15 15 15 15 15 15 15 15 15 15 15 15 14 14 14 14 14 14 14 14 14 14 14 14 13
13 15 16 16 17 17 16 16 16 16 16 16 15 15 14 14 14 14 14 14 14 14 14 14 14 14 14 15 15 15 15 15 15 15 15 14 14 14 14 14 14 14 14 14 14 14 13 13 13
13 14 15 14 14 14 15 15 15 16 17 17 16 14 14 13 14 14 14 14 14 14 14 14 14 14 14 14 14 14 14 14 14 14 14 14 14 14 14 14 14 14 14 13 13 13 13 13 13
12 13 13 13 13 13 14 14 15 15 16 15 15 14 13 13 14 13 13 13 13 14 14 14 14 14 14 14 14 14 14 14 14 14 14 14 14 14 14 13 13 13 13 13 13 13 13 12 12
12 12 12 12 12 12 13 14 14 14 13 14 14 13 13 13 13 13 13 13 13 13 14 14 14 14 14 14 14 14 14 14 14 14 14 14 14 14 14 13 13 13 13 13 13 12 12 12 12
11 11 12 12 12 12 13 13 13 13 13 13 13 13 13 13 13 13 13 13 13 13 13 14 14 14 14 14 14 14 14 14 14 14 14 14 14 14 14 13 13 13 13 13 13 12 12 12 12
10 12 12 12 12 12 13 13 13 12 12 13 13 13 12 12 12 13 13 13 13 13 13 13 13 14 14 14 14 14 14 14 14 14 14 14 14 14 14 13 13 13 13 12 12 12 12 12 12
11 12 12 12 12 12 13 13 13 12 12 13 13 13 12 12 12 12 12 12 13 13 13 13 13 13 13 13 13 13 13 14 14 14 14 14 13 13 13 13 13 13 12 12 12 12 12 12 11
11 11 12 12 12 12 12 13 13 12 12 12 12 12 12 11 12 12 12 12 12 12 13 13 13 13 13 13 13 13 13 13 13 13 13 13 13 13 13 13 13 12 12 12 12 12 12 11 11
10 11 11 12 12 12 12 12 12 11 11 12 12 11 11 11 11 11 12 12 12 12 12 13 13 13 13 13 13 13 13 13 13 13 13 13 13 13 13 13 12 12 12 12 12 11 11 11 11
10 10 10 11 11 11 11 11 12 11 11 11 11 11 11 11 11 11 11 11 12 12 12 12 13 13 13 13 13 13 13 13 13 13 13 13 13 13 12 12 12 12 12 12 12 11 11 11 11
9 9 10 10 10 10 10 11 11 11 10 10 10 10 10 10 10 10 10 11 11 12 12 12 12 12 12 13 13 13 13 13 13 13 12 12 12 12 12 12 12 12 12 11 11 11 11 11 10
8 9 9 9 10 10 10 11 11 11 10 10 9 9 9 9 9 9 10 10 11 11 12 12 12 12 12 12 12 12 12 12 12 12 12 12 12 12 12 12 12 12 11 11 11 11 11 11 10
9 9 9 9 9 10 10 11 12 11 11 11 10 9 9 9 9 9 9 10 10 11 11 11 12 12 12 12 12 12 12 12 12 12 12 12 12 12 12 12 11 11 11 11 11 11 10 10 10
8 8 8 9 9 9 10 10 12 11 11 11 10 9 9 8 8 8 8 9 10 10 11 11 11 11 11 11 12 12 11 12 12 12 12 12 12 11 11 11 11 11 11 11 11 11 10 10 10
7 8 8 9 9 9 10 10 11 11 11 11 10 9 8 8 8 8 8 9 9 9 10 11 11 11 11 11 11 11 11 11 11 11 11 11 11 11 11 11 11 11 11 11 11 10 10 10 10
7 8 8 9 9 10 10 10 10 10 9 9 9 8 8 7 7 8 8 8 9 9 10 10 10 10 10 10 10 11 11 11 11 11 11 11 11 11 11 10 10 10 10 10 10 10 10 9 9
6 7 8 9 9 10 9 9 10 9 8 8 7 7 7 7 7 7 7 8 8 9 9 10 10 10 10 10 10 10 10 10 10 10 10 10 10 10 10 10 10 10 10 10 9 9 9 9 9
6 7 7 7 7 8 9 9 9 8 8 7 7 7 6 6 6 7 7 7 8 8 9 9 9 9 9 9 9 9 9 10 10 10 10 10 10 10 10 10 10 9 9 9 9 9 9 9 8
6 6 6 7 7 8 9 9 9 8 7 7 7 6 5 5 5 6 6 7 7 8 8 8 9 9 9 9 9 9 9 9 9 9 9 9 9 9 9 9 9 9 9 8 8 8 8 8 8
5 5 6 6 7 8 9 9 8 7 7 6 6 5 5 4 5 5 6 6 7 7 8 8 8 8 8 8 8 8 8 8 8 8 9 9 9 8 8 9 8 8 8 8 8 8 7 7 7
5 5 5 6 6 7 8 8 6 6 6 5 5 4 4 4 4 4 5 6 6 7 7 7 7 8 8 8 8 8 8 8 8 8 8 8 8 8 8 8 8 8 8 7 7 7 7 7 7
Wind_Speed
6 4 2 3 5 6 11 7 5 4 4 3 3 4 5 4 3 1 3 8 11 14 17 19 17 16 17 16 16 16 16 16 16 15 15 15 15 14 14 14 15 15 15 15 15 15 16 16 15
4 2 3 4 7 11 11 9 9 6 2 3 3 4 4 3 1 3 4 8 12 14 16 17 18 16 17 17 16 16 15 15 15 15 15 15 14 14 14 14 15 15 14 14 14 15 15 15 15
2 3 4 5 9 13 10 6 7 5 3 3 3 2 2 1 2 2 4 9 12 13 15 17 17 17 17 17 17 16 15 15 15 15 15 15 14 14 14 14 14 14 14 14 14 14 14 14 14
3 3 4 8 14 13 8 4 4 5 4 3 3 2 2 2 2 2 6 10 12 13 15 17 17 17 18 17 16 16 15 15 15 15 15 14 14 14 14 14 14 14 14 14 14 13 13 14 13
3 5 8 11 16 11 6 4 4 5 5 5 4 2 2 2 2 5 8 10 11 12 14 17 17 17 17 17 16 16 15 15 15 15 15 14 14 14 14 14 14 14 14 14 14 13 13 13 13
5 5 10 15 16 11 6 5 6 5 4 3 4 4 2 3 3 5 8 9 10 11 12 16 17 17 17 17 17 16 15 15 15 15 14 14 14 14 14 14 14 13 13 13 13 13 13 13 13
5 7 12 15 14 11 6 5 6 5 5 4 2 3 3 3 3 5 7 8 10 11 11 13 16 16 17 17 17 16 15 15 15 14 14 14 14 14 14 13 13 12 13 13 13 13 12 13 12
3 5 10 12 13 11 4 4 4 5 5 1 2 4 3 3 4 6 7 7 8 10 10 11 13 15 15 16 16 16 15 14 14 14 14 14 13 13 13 13 13 12 12 12 13 13 12 12 12
3 7 12 12 10 7 4 4 3 3 3 3 2 3 1 5 7 7 7 7 7 9 9 10 11 12 13 14 15 15 14 14 14 13 14 13 12 12 11 12 12 12 12 12 12 12 13 12 12
5 9 12 7 5 4 4 4 4 3 5 4 3 1 3 6 8 8 8 9 10 10 10 9 10 11 11 11 13 12 12 13 12 12 13 10 10 9 10 13 12 13 13 12 11 11 10 8 8
5 8 7 5 4 4 4 4 4 6 7 6 5 5 5 7 8 9 9 9 10 10 10 9 9 10 10 9 10 9 9 10 10 11 11 9 9 9 9 9 10 10 10 9 9 8 6 6 6
5 6 5 4 4 5 5 4 5 6 6 5 5 5 7 8 9 9 9 9 9 9 9 10 10 9 10 10 9 9 8 8 8 10 11 9 7 7 7 6 7 7 6 7 6 5 6 6 6
7 5 5 4 4 4 5 6 6 7 7 5 3 5 8 8 9 9 9 8 9 9 9 10 10 10 9 9 8 8 8 9 9 9 10 9 7 6 6 6 6 6 6 6 5 6 6 6 5
4 4 4 4 4 4 5 6 6 7 5 3 3 5 7 8 9 8 9 9 9 9 9 9 10 10 10 9 8 8 9 9 9 8 9 9 8 7 6 6 5 5 6 6 5 5 5 4 4
4 5 4 3 4 3 4 6 7 6 5 4 4 4 5 6 7 8 9 9 10 10 9 9 10 10 10 9 9 8 8 9 8 8 9 9 8 8 7 6 5 5 6 6 6 6 5 4 4
3 5 6 3 4 4 6 9 5 4 4 5 6 5 5 5 7 7 8 9 9 9 9 9 8 10 10 9 9 8 8 8 8 9 9 10 9 9 8 6 5 6 6 6 5 5 4 4 3
4 7 8 5 3 4 6 8 5 3 4 6 6 6 5 5 6 6 6 7 8 9 9 9 9 10 10 9 8 8 8 8 8 9 9 10 10 9 8 6 6 8 6 5 5 4 4 4 3
6 7 8 7 3 4 7 7 6 3 3 4 5 5 5 5 6 5 5 6 6 7 8 8 9 10 9 8 7 6 7 7 8 8 9 10 10 10 9 7 7 8 6 5 5 5 4 4 3
6 6 6 6 4 4 6 7 7 4 3 4 4 4 4 5 5 4 4 4 5 5 6 7 8 9 8 7 8 7 8 7 7 7 9 10 10 10 9 7 7 7 6 7 7 6 5 4 4
6 6 6 4 3 4 6 8 6 4 4 4 4 4 4 4 4 3 3 3 4 4 5 6 7 8 9 8 8 7 7 6 6 6 8 10 10 10 9 9 7 7 6 7 7 6 4 3 4
5 7 6 5 5 4 5 7 6 5 4 4 4 4 4 4 4 4 3 3 4 4 5 5 7 7 8 9 7 6 5 5 5 7 6 7 9 10 10 9 8 8 7 7 8 8 7 5 4
5 4 6 6 5 4 5 6 7 6 5 5 5 4 4 4 4 4 4 4 4 5 5 5 6 7 7 8 9 11 9 8 7 7 7 8 9 9 9 9 9 8 7 8 8 8 6 6 5
4 4 5 6 6 6 6 6 6 5 7 6 6 5 5 5 4 4 4 4 5 5 4 5 5 6 6 8 9 10 10 8 7 7 8 8 8 8 9 9 8 8 7 8 8 7 7 6 6
2 2 2 4 5 6 8 7 7 6 7 7 5 5 5 6 6 5 5 4 4 4 4 4 5 5 6 7 8 9 10 9 9 8 8 7 6 7 8 8 8 8 7 7 7 7 7 7 7
1 1 2 3 4 6 5 6 6 3 4 5 5 6 5 6 5 5 5 5 5 5 4 4 5 5 5 6 7 8 9 10 11 9 9 8 7 6 8 8 8 7 7 7 6 6 6 6 6
2 2 2 3 4 4 4 7 3 2 3 4 4 5 6 7 6 6 6 5 5 5 5 4 5 5 5 6 6 6 7 6 7 9 8 8 7 6 7 8 7 7 7 7 6 5 5 5 6
1 2 2 2 4 4 5 4 4 1 3 4 5 6 7 8 8 7 6 6 5 5 5 5 5 5 5 6 5 6 6 6 6 7 7 6 6 6 7 7 7 7 6 6 6 5 5 5 5
1 1 2 3 3 5 5 6 5 3 4 6 7 7 8 9 9 7 6 6 5 4 4 4 5 5 5 5 5 4 5 5 5 5 6 6 6 6 7 7 6 6 6 5 5 5 5 5 4
1 1 2 2 3 4 5 4 1 3 4 5 7 8 8 9 9 8 7 6 5 4 2 2 3 3 4 5 5 4 5 4 4 5 6 6 6 6 7 7 6 6 5 5 5 5 5 5 4
3 2 3 3 3 3 5 4 2 2 4 5 7 8 8 8 8 8 7 6 5 4 3 2 2 2 3 3 4 4 4 4 4 4 5 6 6 6 6 6 6 6 6 5 5 5 5 5 4
Wind_Direction
312 293 243 216 212 221 229 216 211 191 194 199 196 209 216 209 217 78 86 149 147 152 153 153 150 148 145 141 137 135 134 132 130 128 126 124 122 119 118 116 112 109 106 103 101 101 99 97 96
300 262 213 214 223 221 221 215 210 205 177 162 189 211 212 207 41 75 123 149 151 152 154 156 148 149 147 143 139 137 135 135 133 130 128 126 125 123 121 117 113 109 106 105 104 103 101 98 97
258 248 214 207 223 225 217 204 207 191 176 186 184 209 231 157 114 119 134 154 153 153 155 150 149 149 147 143 142 139 137 136 135 132 131 130 128 124 121 117 113 111 108 107 105 103 102 99 99
212 196 214 223 222 224 228 195 184 180 184 199 200 173 148 65 55 112 142 158 155 154 154 150 150 149 146 144 142 140 140 138 136 134 132 130 128 125 121 118 115 112 110 108 106 104 102 101 101
219 205 207 220 225 222 226 237 195 198 190 191 203 204 163 83 67 123 150 158 157 154 154 152 151 150 148 145 143 142 141 139 137 134 131 130 129 126 121 118 116 114 111 110 109 107 105 104 102
198 209 216 221 220 221 221 230 215 222 209 191 205 216 161 97 101 133 152 160 157 154 153 153 152 152 149 147 145 144 142 141 138 136 133 130 127 126 125 122 118 116 114 114 113 112 109 107 104
214 208 221 223 221 221 217 222 219 225 223 213 223 221 169 125 114 147 155 157 156 155 155 155 159 157 151 149 147 145 143 141 139 136 133 130 129 127 123 121 119 118 117 115 113 113 111 109 105
240 213 218 221 221 221 203 212 230 236 232 251 242 224 200 154 141 150 152 152 153 159 160 159 161 161 160 155 149 145 143 141 137 133 130 128 128 128 126 125 119 118 118 116 114 111 110 108 106
228 218 218 215 218 217 199 217 242 268 226 234 254 292 96 138 149 150 154 159 160 164 166 166 167 164 162 160 154 151 145 142 142 138 134 140 141 137 135 124 121 120 118 116 114 112 111 110 107
210 220 221 220 227 231 224 235 237 223 233 235 240 234 144 154 166 170 174 178 178 177 175 174 171 168 164 160 161 161 159 158 160 156 154 154 147 137 129 123 122 120 118 116 114 116 122 126 119
211 225 226 235 253 256 244 256 251 229 236 241 229 205 187 185 186 189 191 191 191 185 181 179 177 172 170 166 167 164 164 164 166 163 162 155 146 139 136 137 134 132 133 128 126 133 132 127 120
215 234 242 244 259 257 254 255 259 253 259 278 255 212 200 204 201 202 203 202 200 193 189 184 181 179 177 174 173 170 168 169 169 168 165 159 154 152 148 150 147 148 146 141 143 135 131 127 126
222 237 250 259 257 256 257 255 264 270 284 279 242 208 211 215 218 212 211 210 207 202 196 193 186 184 182 180 176 176 174 173 171 169 170 167 162 157 155 155 153 152 148 148 144 145 138 133 127
224 233 249 252 240 245 256 264 260 269 283 264 222 215 219 222 224 221 215 215 214 210 203 197 194 191 186 186 183 180 177 174 172 173 174 171 167 162 162 159 157 155 154 152 150 146 140 137 135
238 230 229 256 250 246 258 256 250 271 271 256 242 234 234 237 233 231 225 220 217 213 208 202 199 196 193 192 189 182 181 177 174 174 176 175 172 169 167 164 160 159 157 155 150 146 142 139 139
223 221 224 245 256 246 235 245 260 272 261 257 252 251 250 250 246 244 241 230 221 213 211 206 201 199 198 195 192 186 184 180 177 176 178 178 176 175 172 168 165 162 162 161 157 156 152 151 155
213 220 229 243 246 243 230 250 275 284 268 264 258 255 255 262 265 261 250 236 225 215 210 207 202 200 198 194 192 187 182 183 182 180 181 179 177 179 180 174 168 168 168 168 166 166 163 160 158
212 222 230 239 249 238 234 250 278 290 279 271 269 265 262 262 265 266 259 240 224 219 214 211 205 201 194 188 188 185 183 186 186 186 185 183 180 180 183 177 175 175 173 173 174 167 164 164 159
222 236 242 250 259 261 246 260 278 274 287 295 292 281 275 269 268 271 266 248 224 216 216 214 206 199 191 189 190 189 188 188 188 189 187 187 185 184 185 180 178 182 183 182 178 170 163 167 165
223 235 247 261 268 255 257 269 276 269 268 278 295 297 288 289 288 285 276 260 232 220 221 216 206 201 198 196 195 194 188 187 187 185 188 188 187 188 189 188 185 186 185 184 181 176 177 181 196
228 227 237 242 276 239 258 260 246 262 262 287 298 298 299 291 280 277 273 265 249 231 226 222 209 201 200 195 186 177 177 179 186 188 188 188 188 189 190 192 189 188 189 189 189 189 194 192 199
244 246 246 231 235 241 230 251 243 249 259 279 290 293 299 294 289 282 274 267 254 242 235 229 212 201 200 192 191 189 191 194 200 195 190 187 187 188 188 190 190 189 191 193 193 195 198 195 197
268 280 255 223 225 246 238 242 249 234 248 267 278 285 293 294 291 286 277 264 252 245 236 230 210 200 201 199 198 200 202 201 194 188 185 184 183 185 187 189 189 190 191 194 193 196 199 202 205
292 245 229 217 221 238 234 231 247 226 240 255 270 285 298 302 299 293 288 275 258 253 241 228 208 202 201 201 201 202 201 197 189 190 188 187 185 184 188 190 191 191 190 194 196 198 201 204 207
12 204 208 213 216 233 218 230 243 245 267 266 275 289 305 312 304 300 295 288 275 260 243 226 214 208 204 201 203 204 201 198 195 193 194 191 189 189 190 190 192 191 190 193 194 199 204 205 205
277 241 234 238 237 250 231 234 246 262 302 304 300 308 322 322 317 308 298 289 279 264 245 227 220 215 205 203 204 206 201 195 195 197 197 197 195 190 187 189 189 189 189 190 191 197 205 206 206
236 216 277 269 270 261 236 249 252 268 315 327 328 333 336 335 331 322 311 300 289 274 253 235 222 215 207 204 198 198 197 195 191 193 195 195 190 183 181 183 182 184 187 190 189 195 200 204 208
282 249 230 216 238 250 250 247 244 255 304 325 334 335 336 335 334 330 321 313 306 288 268 247 226 215 209 204 199 197 196 191 184 182 189 186 183 177 173 175 179 182 185 189 190 192 199 204 208
197 218 254 238 248 258 256 259 345 274 302 315 328 335 336 334 335 334 329 324 321 318 298 278 246 221 208 204 197 188 184 181 176 179 187 182 177 178 178 177 180 184 187 188 189 191 193 201 206
248 247 237 244 249 261 263 274 32 339 344 339 335 339 339 337 336 337 337 336 338 339 334 322 285 241 210 196 190 180 172 171 172 176 182 180 179 183 184 179 181 183 187 189 189 194 197 198 207
Height
1516 1517 1519 1522 1521 1516 1510 1507 1508 1510 1511 1513 1514 1514 1511 1511 1513 1518 1518 1517 1519 1521 1524 1527 1530 1532 1534 1535 1537 1538 1539 1540 1541 1542 1543 1544 1544 1545 1546 1546 1547 1547 1548 1548 1548 1549 1549 1549 1549
1516 1518 1521 1521 1515 1512 1508 1505 1508 1509 1512 1514 1515 1514 1513 1514 1516 1516 1515 1517 1520 1522 1525 1527 1530 1532 1534 1536 1538 1539 1540 1541 1542 1543 1544 1545 1545 1546 1547 1547 1548 1549 1549 1550 1550 1550 1551 1551 1551
1515 1517 1520 1516 1510 1505 1503 1504 1506 1510 1513 1514 1514 1514 1514 1515 1516 1516 1516 1518 1520 1523 1526 1527 1530 1533 1535 1537 1538 1540 1541 1542 1543 1544 1545 1546 1546 1547 1548 1548 1549 1550 1550 1551 1551 1552 1552 1552 1553
1516 1519 1519 1512 1506 1502 1502 1505 1508 1510 1513 1514 1514 1514 1515 1516 1516 1516 1516 1518 1521 1524 1526 1528 1531 1533 1535 1537 1539 1540 1542 1543 1544 1545 1546 1546 1547 1548 1549 1550 1550 1551 1551 1552 1552 1553 1553 1554 1554
1515 1516 1512 1508 1502 1502 1506 1508 1510 1508 1510 1512 1513 1512 1514 1516 1514 1515 1516 1519 1522 1524 1527 1528 1531 1534 1536 1538 1539 1541 1542 1544 1544 1545 1546 1547 1548 1549 1550 1551 1551 1552 1552 1553 1553 1554 1554 1555 1555
1515 1512 1506 1502 1499 1502 1506 1510 1510 1509 1510 1512 1513 1512 1514 1515 1514 1515 1517 1519 1522 1524 1527 1529 1531 1534 1536 1538 1540 1541 1543 1544 1545 1546 1547 1548 1549 1550 1551 1552 1552 1553 1553 1554 1554 1555 1555 1556 1556
1513 1508 1500 1497 1499 1502 1506 1510 1510 1509 1509 1512 1513 1512 1513 1515 1515 1516 1518 1520 1522 1525 1527 1529 1531 1534 1536 1538 1540 1542 1543 1544 1546 1547 1548 1549 1550 1551 1552 1552 1553 1554 1554 1555 1555 1556 1556 1556 1557
1511 1508 1502 1499 1499 1501 1507 1509 1510 1510 1510 1512 1513 1512 1513 1514 1514 1516 1518 1520 1522 1525 1527 1529 1531 1534 1536 1538 1540 1541 1543 1545 1546 1547 1548 1549 1550 1551 1552 1553 1554 1554 1555 1555 1556 1556 1557 1557 1558
1511 1509 1500 1499 1500 1502 1507 1509 1510 1511 1511 1512 1512 1513 1513 1513 1514 1516 1518 1520 1522 1524 1526 1528 1531 1533 1535 1537 1539 1541 1543 1545 1546 1548 1549 1550 1551 1552 1553 1553 1554 1555 1555 1556 1557 1557 1558 1558 1558
1509 1503 1499 1502 1504 1505 1507 1508 1510 1510 1509 1510 1511 1512 1512 1512 1514 1515 1516 1518 1521 1523 1525 1527 1529 1532 1534 1536 1538 1540 1542 1544 1546 1548 1549 1550 1551 1552 1553 1553 1554 1555 1556 1556 1557 1557 1558 1558 1559
1507 1503 1503 1505 1507 1507 1507 1508 1509 1508 1507 1508 1509 1510 1511 1512 1513 1515 1516 1517 1519 1521 1523 1525 1527 1530 1532 1534 1537 1539 1541 1543 1545 1547 1548 1549 1550 1551 1552 1553 1554 1555 1556 1556 1557 1557 1558 1559 1559
1507 1506 1506 1506 1507 1508 1508 1508 1508 1507 1507 1509 1509 1509 1510 1511 1512 1513 1515 1516 1518 1520 1521 1523 1525 1528 1530 1533 1535 1537 1540 1542 1543 1545 1547 1548 1549 1550 1552 1553 1554 1555 1555 1556 1557 1557 1558 1558 1559
1506 1506 1506 1507 1507 1507 1508 1507 1507 1507 1507 1507 1507 1508 1509 1510 1511 1512 1513 1515 1516 1518 1519 1521 1524 1526 1528 1531 1533 1535 1538 1540 1542 1543 1545 1547 1548 1549 1551 1552 1553 1554 1554 1555 1556 1557 1557 1558 1558
1505 1506 1506 1506 1506 1506 1506 1506 1506 1505 1506 1506 1506 1506 1507 1508 1509 1510 1511 1512 1513 1515 1517 1519 1521 1524 1526 1528 1531 1533 1536 1538 1540 1541 1543 1545 1547 1548 1549 1550 1552 1553 1553 1554 1555 1556 1556 1557 1558
1506 1505 1504 1504 1504 1505 1505 1502 1503 1504 1504 1504 1504 1505 1505 1506 1507 1507 1508 1509 1511 1512 1514 1516 1519 1521 1524 1526 1528 1531 1534 1536 1538 1540 1541 1543 1545 1546 1548 1549 1550 1551 1552 1553 1554 1555 1555 1556 1556
1504 1502 1500 1502 1503 1503 1505 1499 1500 1502 1502 1502 1502 1502 1503 1503 1504 1505 1506 1507 1508 1510 1511 1514 1516 1518 1521 1523 1526 1529 1531 1533 1535 1538 1539 1541 1543 1545 1546 1547 1548 1550 1551 1552 1553 1553 1554 1555 1555
1501 1499 1498 1499 1502 1501 1501 1498 1499 1501 1501 1500 1499 1500 1500 1501 1501 1502 1503 1504 1505 1507 1508 1510 1512 1515 1518 1520 1523 1526 1528 1531 1533 1535 1537 1539 1541 1543 1544 1545 1546 1548 1549 1550 1551 1552 1553 1553 1554
1499 1497 1497 1497 1499 1500 1498 1498 1498 1499 1499 1498 1497 1497 1497 1498 1498 1499 1500 1501 1502 1503 1505 1507 1509 1511 1514 1517 1520 1522 1525 1528 1530 1532 1534 1536 1538 1540 1542 1543 1544 1546 1547 1548 1549 1550 1551 1552 1552
1501 1501 1499 1498 1499 1500 1497 1497 1496 1497 1497 1496 1495 1495 1495 1495 1496 1497 1497 1498 1499 1500 1501 1503 1505 1507 1510 1513 1515 1518 1521 1524 1526 1529 1531 1533 1535 1537 1539 1540 1542 1543 1545 1546 1547 1548 1549 1549 1550
1503 1502 1499 1499 1499 1500 1497 1496 1495 1495 1495 1495 1495 1494 1493 1493 1493 1493 1494 1494 1495 1496 1498 1499 1501 1504 1506 1509 1512 1515 1517 1520 1523 1526 1528 1530 1532 1534 1536 1538 1539 1540 1542 1543 1544 1545 1546 1547 1548
1502 1501 1499 1500 1499 1498 1497 1491 1491 1491 1492 1492 1493 1492 1492 1491 1491 1490 1490 1491 1492 1493 1494 1496 1498 1500 1502 1505 1508 1511 1513 1516 1519 1521 1524 1526 1528 1531 1533 1535 1536 1537 1539 1540 1541 1543 1543 1544 1545
1499 1500 1501 1500 1498 1494 1495 1489 1484 1486 1488 1488 1489 1490 1489 1489 1489 1488 1487 1488 1488 1489 1491 1492 1494 1496 1498 1501 1503 1506 1508 1510 1513 1517 1520 1522 1525 1527 1529 1531 1533 1534 1535 1537 1538 1539 1540 1541 1541
1500 1501 1500 1498 1497 1496 1492 1492 1480 1484 1483 1484 1486 1487 1487 1487 1486 1485 1485 1485 1485 1486 1487 1489 1491 1492 1495 1497 1499 1502 1505 1507 1511 1514 1516 1518 1520 1523 1525 1527 1528 1530 1531 1533 1534 1535 1537 1537 1538
1502 1501 1499 1497 1495 1495 1489 1487 1478 1480 1481 1482 1484 1485 1486 1485 1484 1483 1482 1482 1482 1483 1484 1485 1487 1488 1490 1492 1495 1497 1500 1503 1506 1509 1511 1513 1516 1518 1520 1522 1524 1526 1527 1529 1530 1531 1532 1533 1534
1502 1500 1495 1493 1491 1485 1486 1485 1479 1479 1482 1483 1483 1484 1484 1483 1481 1480 1479 1479 1479 1479 1480 1482 1483 1484 1486 1488 1491 1493 1496 1499 1501 1504 1507 1509 1511 1513 1515 1518 1520 1521 1523 1524 1526 1527 1528 1529 1530
1504 1502 1498 1493 1485 1480 1486 1481 1478 1483 1484 1483 1483 1483 1482 1480 1479 1477 1476 1476 1476 1476 1477 1478 1479 1480 1482 1484 1487 1489 1492 1494 1497 1500 1503 1505 1507 1509 1511 1513 1515 1517 1518 1520 1521 1523 1524 1525 1526
1504 1503 1503 1500 1496 1493 1483 1481 1480 1482 1482 1482 1481 1480 1479 1478 1476 1475 1474 1474 1473 1473 1473 1474 1476 1477 1479 1480 1483 1485 1488 1490 1493 1495 1498 1501 1503 1505 1507 1509 1511 1513 1514 1516 1517 1518 1520 1521 1522
1507 1506 1504 1500 1495 1485 1477 1476 1474 1479 1480 1481 1480 1479 1478 1477 1474 1473 1472 1471 1470 1470 1471 1471 1472 1473 1475 1477 1479 1481 1484 1486 1489 1491 1494 1496 1498 1501 1503 1505 1507 1509 1510 1512 1513 1514 1515 1517 1517
1509 1508 1505 1500 1497 1487 1480 1474 1479 1480 1482 1481 1481 1479 1478 1476 1474 1471 1470 1469 1468 1468 1468 1468 1469 1470 1471 1473 1475 1477 1480 1482 1484 1487 1489 1491 1494 1497 1499 1501 1503 1505 1506 1507 1509 1510 1511 1512 1513
1508 1506 1505 1501 1499 1494 1484 1480 1484 1483 1483 1483 1482 1480 1478 1476 1473 1471 1469 1468 1466 1466 1465 1465 1466 1467 1468 1469 1471 1473 1476 1478 1480 1483 1485 1488 1490 1493 1495 1496 1498 1500 1502 1503 1505 1506 1507 1508 1509